Weather History for KE38 - May, 2013

Change the Weather History Date:

Thursday, May 16, 2013

  Actual Average (KMRF) Record (KMRF)
Temperature  
Mean Temperature 79 °F -  
Max Temperature 92 °F 81 °F 95 °F (2000)
Min Temperature 67 °F 50 °F 35 °F (2014)
Cooling Degree Days 14    
Growing Degree Days 29 (Base 50)    
Moisture  
Dew Point 30 °F    
Average Humidity 17    
Maximum Humidity 26    
Minimum Humidity 10    
Precipitation  
Precipitation 0.00 in - - ()
Sea Level Pressure  
Sea Level Pressure 30.03 in    
Wind  
Wind Speed 12 mph (West)    
Max Wind Speed 22 mph    
Max Gust Speed 31 mph    
Visibility 10 miles    
Events      
Averages and records for this station are not official NWS values.
T = Trace of Precipitation, MM = Missing Value Source: NWS Daily Summary

Daily Weather History Graph

Daily Weather History Graph

Search for Another Location

Airport or City:

Trip Planner

Search our weather history database for the weather conditions in past years. The results will help you decide how hot, cold, wet, or windy it might be!

Date:

Astronomy

May. 16, 2013 Rise Set
Actual Time 6:59 AM CDT 8:42 PM CDT
Civil Twilight 6:33 AM CDT 9:09 PM CDT
Nautical Twilight 6:01 AM CDT 9:40 PM CDT
Astronomical Twilight 5:28 AM CDT 10:14 PM CDT
Moon 12:27 PM CDT (5/16) 1:11 AM CDT (5/16)
Length of Visible Light 14h 35m
Length of Day
13h 43m
Waxing Crescent, 36% of the Moon is Illuminated
May 16
Waxing Crescent
May 17
First Quarter
May 24
Full
May 31
Last Quarter
Jun 8
New

Hourly Weather History & Observations

Time (CDT) Temp. Dew Point Humidity Pressure Visibility Wind Dir Wind Speed Gust Speed Precip Events Conditions
12:15 AM 72.7 °F 34.5 °F 25% 30.03 in 10.0 mi WSW 10.4 mph - N/A   Clear
12:35 AM 71.8 °F 34.7 °F 26% 30.03 in 10.0 mi WSW 11.5 mph - N/A   Clear
12:55 AM 73.6 °F 33.8 °F 23% 30.03 in 10.0 mi WSW 11.5 mph - N/A   Clear
1:15 AM 74.3 °F 33.4 °F 22% 30.02 in 10.0 mi WSW 13.8 mph - N/A   Clear
1:35 AM 73.8 °F 33.6 °F 23% 30.02 in 10.0 mi WSW 13.8 mph - N/A   Clear
1:55 AM 73.4 °F 33.1 °F 23% 30.01 in 10.0 mi WSW 13.8 mph - N/A   Clear
2:15 AM 72.5 °F 33.1 °F 24% 30.01 in 10.0 mi WSW 13.8 mph - N/A   Clear
2:35 AM 72.5 °F 32.9 °F 23% 30.01 in 10.0 mi WSW 13.8 mph - N/A   Clear
2:55 AM 72.0 °F 32.9 °F 24% 30.01 in 10.0 mi WSW 15.0 mph - N/A   Clear
3:15 AM 72.0 °F 32.7 °F 24% 30.01 in 10.0 mi WSW 13.8 mph - N/A   Clear
3:35 AM 70.7 °F 32.9 °F 25% 30.01 in 10.0 mi WSW 12.7 mph - N/A   Clear
3:55 AM 70.7 °F 32.7 °F 25% 30.01 in 10.0 mi WSW 10.4 mph - N/A   Clear
4:15 AM 69.8 °F 32.9 °F 26% 30.01 in 10.0 mi WSW 10.4 mph - N/A   Clear
4:35 AM 69.3 °F 32.9 °F 26% 30.02 in 10.0 mi WSW 11.5 mph 17.3 mph N/A   Clear
4:55 AM 70.9 °F 32.0 °F 24% 30.02 in 10.0 mi WSW 8.1 mph - N/A   Clear
5:15 AM 73.4 °F 30.7 °F 21% 30.02 in 10.0 mi West 10.4 mph 17.3 mph N/A   Clear
5:35 AM 72.1 °F 31.1 °F 22% 30.02 in 10.0 mi West 11.5 mph 18.4 mph N/A   Clear
5:55 AM 75.2 °F 29.1 °F 18% 30.02 in 10.0 mi West 16.1 mph - N/A   Clear
6:15 AM 75.4 °F 28.4 °F 18% 30.02 in 10.0 mi WNW 13.8 mph 18.4 mph N/A   Clear
6:35 AM 76.1 °F 27.5 °F 17% 30.02 in 10.0 mi West 13.8 mph 19.6 mph N/A   Clear
6:55 AM 75.4 °F 27.5 °F 17% 30.03 in 10.0 mi West 13.8 mph 20.7 mph N/A   Clear
7:15 AM 76.5 °F 27.3 °F 16% 30.04 in 10.0 mi West 10.4 mph 25.3 mph N/A   Clear
7:35 AM 77.0 °F 27.5 °F 16% 30.04 in 10.0 mi West 15.0 mph 23.0 mph N/A   Clear
7:55 AM 78.6 °F 26.8 °F 15% 30.04 in 10.0 mi WNW 21.9 mph 27.6 mph N/A   Clear
8:15 AM 79.0 °F 27.1 °F 15% 30.05 in 10.0 mi WNW 18.4 mph 25.3 mph N/A   Clear
8:35 AM 80.1 °F 26.8 °F 14% 30.06 in 10.0 mi WNW 19.6 mph 26.5 mph N/A   Clear
8:55 AM 81.0 °F 27.5 °F 14% 30.07 in 10.0 mi WNW 12.7 mph 19.6 mph N/A   Clear
9:15 AM 81.7 °F 28.0 °F 14% 30.08 in 10.0 mi WNW 10.4 mph - N/A   Clear
9:35 AM 82.9 °F 28.6 °F 14% 30.09 in 10.0 mi West 11.5 mph 16.1 mph N/A   Clear
9:55 AM 83.1 °F 28.4 °F 14% 30.09 in 10.0 mi West 13.8 mph 17.3 mph N/A   Clear
10:15 AM 84.7 °F 28.0 °F 13% 30.09 in 10.0 mi NW 13.8 mph 19.6 mph N/A   Clear
10:55 AM 85.6 °F 27.3 °F 12% 30.09 in 10.0 mi NW 9.2 mph 17.3 mph N/A   Clear
11:15 AM 86.5 °F 27.1 °F 12% 30.09 in 10.0 mi West 11.5 mph - N/A   Clear
11:35 AM 87.3 °F 27.9 °F 12% 30.09 in 10.0 mi NW 5.8 mph 18.4 mph N/A   Clear
12:15 PM 89.2 °F 28.8 °F 11% 30.08 in 10.0 mi West 13.8 mph 21.9 mph N/A   Clear
12:35 PM 88.7 °F 28.2 °F 11% 30.07 in 10.0 mi NW 13.8 mph 18.4 mph N/A   Clear
12:55 PM 90.5 °F 29.1 °F 11% 30.07 in 10.0 mi WSW 18.4 mph 24.2 mph N/A   Clear
1:15 PM 90.7 °F 29.7 °F 11% 30.06 in 10.0 mi SW 15.0 mph 25.3 mph N/A   Clear
1:35 PM 90.7 °F 29.3 °F 11% 30.06 in 10.0 mi West 20.7 mph 28.8 mph N/A   Clear
2:15 PM 91.2 °F 28.9 °F 11% 30.06 in 10.0 mi WSW 9.2 mph 24.2 mph N/A   Clear
2:55 PM 90.9 °F 29.5 °F 11% 30.05 in 10.0 mi West 11.5 mph 19.6 mph N/A   Clear
3:15 PM 91.0 °F 28.9 °F 11% 30.04 in 10.0 mi WSW 13.8 mph 24.2 mph N/A   Clear
3:35 PM 90.7 °F 28.0 °F 11% 30.04 in 10.0 mi West 12.7 mph 23.0 mph N/A   Clear
3:55 PM 90.7 °F 27.7 °F 10% 30.04 in 10.0 mi WNW 13.8 mph 31.1 mph N/A   Clear
4:15 PM 91.0 °F 28.6 °F 11% 30.03 in 10.0 mi West 13.8 mph 18.4 mph N/A   Clear
4:35 PM 91.0 °F 28.6 °F 11% 30.02 in 10.0 mi West 10.4 mph 21.9 mph N/A   Clear
4:55 PM 91.0 °F 27.7 °F 10% 30.01 in 10.0 mi Calm Calm - N/A   Clear
5:15 PM 91.2 °F 27.0 °F 10% 30.00 in 10.0 mi West 17.3 mph 24.2 mph N/A   Clear
5:35 PM 90.5 °F 27.0 °F 10% 30.00 in 10.0 mi NW 11.5 mph 19.6 mph N/A   Clear
5:55 PM 90.3 °F 27.0 °F 10% 30.00 in 10.0 mi West 12.7 mph 24.2 mph N/A   Clear
6:55 PM 89.4 °F 25.3 °F 10% 29.99 in 10.0 mi WNW 11.5 mph 20.7 mph N/A   Clear
7:15 PM 88.7 °F 26.1 °F 10% 29.99 in 10.0 mi SW 8.1 mph - N/A   Clear
7:35 PM 88.2 °F 26.4 °F 11% 29.99 in 10.0 mi West 8.1 mph - N/A   Clear
7:55 PM 87.1 °F 27.0 °F 11% 29.99 in 10.0 mi WSW 5.8 mph - N/A   Clear
8:15 PM 85.6 °F 27.0 °F 12% 29.99 in 10.0 mi West 11.5 mph - N/A   Clear
8:35 PM 80.8 °F 28.8 °F 15% 30.00 in 10.0 mi West 6.9 mph - N/A   Clear
8:55 PM 78.1 °F 28.9 °F 17% 30.00 in 10.0 mi WSW 6.9 mph - N/A   Clear
9:15 PM 76.3 °F 29.3 °F 18% 30.01 in 10.0 mi WSW 6.9 mph - N/A   Clear
9:35 PM 71.2 °F 31.3 °F 23% 30.01 in 10.0 mi WSW 6.9 mph - N/A   Clear
9:55 PM 69.1 °F 32.4 °F 26% 30.02 in 10.0 mi West 8.1 mph - N/A   Clear
10:15 PM 68.7 °F 32.2 °F 26% 30.02 in 10.0 mi SW 9.2 mph - N/A   Clear
10:35 PM 69.3 °F 32.0 °F 25% 30.02 in 10.0 mi WSW 9.2 mph - N/A   Clear
10:55 PM 67.8 °F 31.6 °F 26% 30.03 in 10.0 mi SW 9.2 mph - N/A   Clear
11:15 PM 68.7 °F 31.1 °F 25% 30.03 in 10.0 mi SSW 10.4 mph - N/A   Clear
11:35 PM 68.9 °F 30.6 °F 24% 30.04 in 10.0 mi SW 9.2 mph - N/A   Clear
11:55 PM 67.8 °F 31.1 °F 26% 30.03 in 10.0 mi WSW 9.2 mph - N/A   Clear